CGMPW CYHZ-CYQM

Flight info

Callsign CGMPW
Flight time 0h 35m
Altitude 16000
Route KELNO
Aircraft PC12/L-SDFGRWY/S

Departure

Time 2026-04-27 22:30
Airport Halifax / Stanfield International Airport (CYHZ)

Arrival

Time 2026-04-27 23:05
Airport Greater Moncton Roméo LeBlanc International Airport (CYQM)
Time Latitude Longitude Altitude Speed Heading
2026-04-27 22:12 44.88180 -63.51712 455 ft 0 kts 307°
2026-04-27 22:23 44.88185 -63.51727 455 ft 1 kts 272°
2026-04-27 22:23 44.88180 -63.51727 455 ft 2 kts 126°
2026-04-27 22:23 44.88173 -63.51714 455 ft 0 kts 125°
2026-04-27 22:23 44.88174 -63.51715 455 ft 0 kts 126°
2026-04-27 22:24 44.88162 -63.51677 455 ft 18 kts 110°
2026-04-27 22:24 44.88144 -63.51589 455 ft 19 kts 107°
2026-04-27 22:24 44.88175 -63.51466 455 ft 21 kts 32°
2026-04-27 22:24 44.88292 -63.51351 454 ft 22 kts 36°
2026-04-27 22:25 44.88400 -63.51230 454 ft 21 kts 38°
2026-04-27 22:25 44.88503 -63.51217 454 ft 14 kts 350°
2026-04-27 22:25 44.88650 -63.51253 453 ft 19 kts 350°
2026-04-27 22:25 44.88791 -63.51288 453 ft 22 kts 353°
2026-04-27 22:26 44.88934 -63.51322 453 ft 17 kts 350°
2026-04-27 22:26 44.89017 -63.51280 453 ft 7 kts 38°
2026-04-27 22:26 44.89019 -63.51278 453 ft 0 kts 37°
2026-04-27 22:28 44.89021 -63.51275 453 ft 4 kts 37°
2026-04-27 22:28 44.89082 -63.51191 452 ft 13 kts 77°
2026-04-27 22:29 44.89076 -63.51153 452 ft 0 kts 123°
2026-04-27 22:29 44.89001 -63.51001 451 ft 51 kts 125°
2026-04-27 22:29 44.88683 -63.50358 454 ft 104 kts 125°
2026-04-27 22:29 44.88246 -63.49419 655 ft 112 kts 125°
2026-04-27 22:30 44.87876 -63.48472 1117 ft 118 kts 118°
2026-04-27 22:30 44.87462 -63.47386 1599 ft 132 kts 124°
2026-04-27 22:30 44.86885 -63.46335 2116 ft 139 kts 126°
2026-04-27 22:30 44.86279 -63.45262 2619 ft 144 kts 127°
2026-04-27 22:31 44.85358 -63.44691 3118 ft 158 kts 183°
2026-04-27 22:31 44.84429 -63.45542 3628 ft 169 kts 223°
2026-04-27 22:31 44.83620 -63.46750 4145 ft 171 kts 223°
2026-04-27 22:31 44.82791 -63.47970 4679 ft 174 kts 224°
2026-04-27 22:32 44.81938 -63.49199 5209 ft 176 kts 224°
2026-04-27 22:32 44.81109 -63.50488 5705 ft 179 kts 240°
2026-04-27 22:32 44.81059 -63.52183 6207 ft 178 kts 296°
2026-04-27 22:32 44.81749 -63.53581 6731 ft 175 kts 311°
2026-04-27 22:33 44.82500 -63.54937 7232 ft 176 kts 308°
2026-04-27 22:33 44.83207 -63.56350 7731 ft 177 kts 307°
2026-04-27 22:33 44.83901 -63.57786 8235 ft 178 kts 306°
2026-04-27 22:33 44.84599 -63.59233 8749 ft 179 kts 307°
2026-04-27 22:34 44.85309 -63.60703 9271 ft 184 kts 306°
2026-04-27 22:34 44.86033 -63.62205 9806 ft 186 kts 307°
2026-04-27 22:34 44.86767 -63.63722 10341 ft 188 kts 306°
2026-04-27 22:34 44.87505 -63.65253 10824 ft 190 kts 306°
2026-04-27 22:35 44.88249 -63.66797 11317 ft 190 kts 306°
2026-04-27 22:35 44.88993 -63.68337 11813 ft 190 kts 305°
2026-04-27 22:35 44.89723 -63.69855 12309 ft 190 kts 305°
2026-04-27 22:35 44.90464 -63.71397 12820 ft 189 kts 305°
2026-04-27 22:36 44.91204 -63.72934 13341 ft 189 kts 304°
2026-04-27 22:36 44.91940 -63.74467 13867 ft 189 kts 304°
2026-04-27 22:36 44.92680 -63.76007 14381 ft 190 kts 304°
2026-04-27 22:36 44.93422 -63.77554 14856 ft 190 kts 304°
2026-04-27 22:37 44.94163 -63.79097 15335 ft 190 kts 303°
2026-04-27 22:37 44.94907 -63.80648 15809 ft 192 kts 303°
2026-04-27 22:37 44.95681 -63.82264 16016 ft 207 kts 303°
2026-04-27 22:37 44.96525 -63.84027 16016 ft 223 kts 303°
2026-04-27 22:38 44.97415 -63.85882 16016 ft 231 kts 303°
2026-04-27 22:38 44.98311 -63.87752 16013 ft 234 kts 303°
2026-04-27 22:38 44.99228 -63.89661 16009 ft 235 kts 305°
2026-04-27 22:38 45.00509 -63.91075 15999 ft 237 kts 334°
2026-04-27 22:39 45.02059 -63.91891 16007 ft 237 kts 338°
2026-04-27 22:39 45.03583 -63.92784 16009 ft 237 kts 334°
2026-04-27 22:39 45.05052 -63.93824 16007 ft 236 kts 332°
2026-04-27 22:39 45.06514 -63.94888 16006 ft 237 kts 332°
2026-04-27 22:40 45.07995 -63.95930 16002 ft 237 kts 333°
2026-04-27 22:40 45.09452 -63.96945 16003 ft 236 kts 332°
2026-04-27 22:40 45.10928 -63.97981 15997 ft 236 kts 332°
2026-04-27 22:40 45.12403 -63.99018 15996 ft 237 kts 333°
2026-04-27 22:41 45.13879 -64.00057 15997 ft 237 kts 333°
2026-04-27 22:41 45.15356 -64.01097 15997 ft 236 kts 332°
2026-04-27 22:41 45.16830 -64.02135 15997 ft 236 kts 333°
2026-04-27 22:41 45.18310 -64.03176 15994 ft 237 kts 332°
2026-04-27 22:42 45.19768 -64.04204 15990 ft 237 kts 332°
2026-04-27 22:42 45.21263 -64.05258 15997 ft 236 kts 332°
2026-04-27 22:42 45.22717 -64.06287 15999 ft 237 kts 332°
2026-04-27 22:42 45.24197 -64.07332 16001 ft 237 kts 332°
2026-04-27 22:43 45.25673 -64.08374 15999 ft 237 kts 333°
2026-04-27 22:43 45.27154 -64.09421 15998 ft 237 kts 333°
2026-04-27 22:43 45.28634 -64.10467 15997 ft 238 kts 333°
2026-04-27 22:43 45.30114 -64.11515 15997 ft 238 kts 333°
2026-04-27 22:44 45.31595 -64.12565 15993 ft 237 kts 333°
2026-04-27 22:44 45.33078 -64.13614 15992 ft 238 kts 333°
2026-04-27 22:44 45.34562 -64.14667 15968 ft 239 kts 333°
2026-04-27 22:44 45.35997 -64.15683 15748 ft 219 kts 333°
2026-04-27 22:45 45.37271 -64.16585 15482 ft 190 kts 333°
2026-04-27 22:45 45.38372 -64.17367 15253 ft 165 kts 333°
2026-04-27 22:45 45.39381 -64.18088 15042 ft 161 kts 333°
2026-04-27 22:45 45.40380 -64.18798 14828 ft 160 kts 333°
2026-04-27 22:46 45.41041 -64.19267 14688 ft 159 kts 334°
2026-04-27 22:46 45.42030 -64.19971 14481 ft 159 kts 334°
2026-04-27 22:46 45.43018 -64.20674 14273 ft 158 kts 334°
2026-04-27 22:46 45.44002 -64.21374 14057 ft 157 kts 334°
2026-04-27 22:47 45.44976 -64.22068 13839 ft 156 kts 334°
2026-04-27 22:47 45.45937 -64.22750 13621 ft 154 kts 334°
2026-04-27 22:47 45.46794 -64.23656 13406 ft 154 kts 318°
2026-04-27 22:47 45.47580 -64.24695 13204 ft 154 kts 320°
2026-04-27 22:48 45.48395 -64.25684 13008 ft 153 kts 321°
2026-04-27 22:48 45.49216 -64.26653 12808 ft 153 kts 322°
2026-04-27 22:48 45.50024 -64.27605 12623 ft 151 kts 322°
2026-04-27 22:48 45.50833 -64.28557 12439 ft 150 kts 322°
2026-04-27 22:49 45.51639 -64.29505 12255 ft 150 kts 322°
2026-04-27 22:49 45.52440 -64.30447 12070 ft 149 kts 323°
2026-04-27 22:49 45.53259 -64.31413 11912 ft 166 kts 322°
2026-04-27 22:49 45.54224 -64.32548 11893 ft 193 kts 322°
2026-04-27 22:50 45.55301 -64.33815 11913 ft 207 kts 322°
2026-04-27 22:50 45.56428 -64.35146 11934 ft 212 kts 322°
2026-04-27 22:50 45.57561 -64.36485 11938 ft 211 kts 322°
2026-04-27 22:50 45.58691 -64.37822 11935 ft 211 kts 322°
2026-04-27 22:51 45.59810 -64.39144 11892 ft 212 kts 322°
2026-04-27 22:51 45.60964 -64.40506 11681 ft 218 kts 322°
2026-04-27 22:51 45.62115 -64.41866 11410 ft 209 kts 322°
2026-04-27 22:51 45.63253 -64.43212 11134 ft 214 kts 322°
2026-04-27 22:52 45.64401 -64.44570 10854 ft 215 kts 322°
2026-04-27 22:52 45.65553 -64.45936 10570 ft 215 kts 322°
2026-04-27 22:52 45.66710 -64.47307 10287 ft 216 kts 322°
2026-04-27 22:52 45.67864 -64.48675 9983 ft 215 kts 322°
2026-04-27 22:53 45.69011 -64.50037 9688 ft 213 kts 322°
2026-04-27 22:53 45.70159 -64.51399 9348 ft 212 kts 322°
2026-04-27 22:53 45.71287 -64.52740 9111 ft 210 kts 322°
2026-04-27 22:53 45.72409 -64.54073 8848 ft 209 kts 322°
2026-04-27 22:54 45.73523 -64.55398 8576 ft 208 kts 322°
2026-04-27 22:54 45.74633 -64.56718 8307 ft 206 kts 321°
2026-04-27 22:54 45.75735 -64.58030 8033 ft 205 kts 321°
2026-04-27 22:54 45.76829 -64.59333 7767 ft 204 kts 321°
2026-04-27 22:55 45.77906 -64.60615 7500 ft 203 kts 321°
2026-04-27 22:55 45.78984 -64.61901 7233 ft 201 kts 321°
2026-04-27 22:55 45.80057 -64.63181 6966 ft 200 kts 321°
2026-04-27 22:55 45.81125 -64.64456 6701 ft 200 kts 320°
2026-04-27 22:56 45.82194 -64.65733 6427 ft 199 kts 320°
2026-04-27 22:56 45.83256 -64.67001 6163 ft 198 kts 321°
2026-04-27 22:56 45.84308 -64.68261 5902 ft 196 kts 320°
2026-04-27 22:56 45.85359 -64.69517 5643 ft 196 kts 320°
2026-04-27 22:57 45.86392 -64.70753 5392 ft 196 kts 320°
2026-04-27 22:57 45.87442 -64.72008 5133 ft 197 kts 320°
2026-04-27 22:57 45.88486 -64.73260 4869 ft 194 kts 320°
2026-04-27 22:57 45.89540 -64.74523 4605 ft 194 kts 320°
2026-04-27 22:58 45.90575 -64.75762 4348 ft 194 kts 319°
2026-04-27 22:58 45.91601 -64.76995 4097 ft 196 kts 319°
2026-04-27 22:58 45.92594 -64.78359 3937 ft 194 kts 311°
2026-04-27 22:58 45.93485 -64.79775 3776 ft 186 kts 311°
2026-04-27 22:59 45.94381 -64.81188 3598 ft 186 kts 312°
2026-04-27 22:59 45.95226 -64.82512 3416 ft 173 kts 312°
2026-04-27 22:59 45.96024 -64.83764 3248 ft 166 kts 313°
2026-04-27 22:59 45.96918 -64.84739 3090 ft 160 kts 340°
2026-04-27 23:00 45.99039 -64.84524 2808 ft 155 kts 34°
2026-04-27 23:00 45.99850 -64.83541 2660 ft 152 kts 47°
2026-04-27 23:00 46.00631 -64.82517 2518 ft 152 kts 45°
2026-04-27 23:01 46.01408 -64.81505 2383 ft 150 kts 46°
2026-04-27 23:01 46.02191 -64.80524 2227 ft 149 kts 42°
2026-04-27 23:01 46.02983 -64.79612 2088 ft 146 kts 44°
2026-04-27 23:01 46.03744 -64.78644 1947 ft 146 kts 45°
2026-04-27 23:02 46.04495 -64.77667 1813 ft 145 kts 46°
2026-04-27 23:02 46.05234 -64.76677 1649 ft 146 kts 46°
2026-04-27 23:02 46.05964 -64.75700 1457 ft 138 kts 46°
2026-04-27 23:02 46.06677 -64.74746 1270 ft 141 kts 46°
2026-04-27 23:03 46.07358 -64.73838 1088 ft 131 kts 46°
2026-04-27 23:03 46.08038 -64.72927 966 ft 132 kts 45°
2026-04-27 23:03 46.08685 -64.72058 806 ft 123 kts 44°
2026-04-27 23:03 46.09271 -64.71272 643 ft 106 kts 43°
2026-04-27 23:04 46.09786 -64.70580 509 ft 97 kts 41°
2026-04-27 23:04 46.10242 -64.69968 376 ft 84 kts 40°
2026-04-27 23:04 46.10645 -64.69399 252 ft 80 kts 41°
2026-04-27 23:04 46.11052 -64.68864 207 ft 73 kts 41°
2026-04-27 23:05 46.11244 -64.68609 205 ft 19 kts 51°
2026-04-27 23:05 46.11203 -64.68481 198 ft 17 kts 161°
2026-04-27 23:05 46.11040 -64.68473 199 ft 30 kts 178°
2026-04-27 23:05 46.10810 -64.68458 208 ft 30 kts 178°
2026-04-27 23:06 46.10628 -64.68373 214 ft 30 kts 130°
2026-04-27 23:06 46.10547 -64.68161 209 ft 8 kts 147°
2026-04-27 23:06 46.10527 -64.68150 206 ft 0 kts 166°